Location: Newark
(45.9456°N, 15.4064°E)
Time: 03:39:01
(UTC+00:00)

SR - Pass Details

Date: 29 January 2020
Orbit: 575 x 881 km, 66.7° (Epoch: 16 February)

Event Time Altitude Azimuth Distance (km) Brightness Sun altitude
Rises 20:42:20 0° 223° (SW) 3,418 - -48.4°
Reaches altitude 10° 20:44:49 10° 227° (SW) 2,507 - -48.7°
Maximum altitude 20:50:37 62° 307° (NW) 992 - -49.6°
Drops below altitude 10° 20:56:30 10° 28° (NNE) 2,532 - -50.4°
Sets 20:59:01 0° 32° (NNE) 3,454 - -50.8°
